Regional Weather Roundup
Issued by NWS Little Rock, AR

Home | Current Version | Previous Version | Text Only | Print | Product List | Glossary Off
Versions: 1 2 3 4 5 6 7 8 9 10 11 12 13 14 15 16 17 18 19 20 21 22 23 24 25 26 27 28 29 30 31 32 33 34 35 36 37 38 39 40 41 42 43 44 45 46 47 48 49 50

000
ASUS44 KLZK 300705
RWRLZK

WEATHER ROUNDUP FOR ARKANSAS
NATIONAL WEATHER SERVICE LITTLE ROCK AR
200 AM CDT TUE AUG 30 2016

NOTE: "FAIR" INDICATES FEW OR NO CLOUDS BELOW 12,000 FEET WITH NO
SIGNIFICANT WEATHER AND/OR OBSTRUCTIONS TO VISIBILITY.

ARZ001-003-010-029-300800-
NORTHWEST ARKANSAS

CITY           SKY/WX    TMP DP  RH WIND       PRES   REMARKS
FAYETTEVILLE   PTCLDY    72  72 100 CALM      30.14F
FORT SMITH     CLEAR     74  71  91 CALM      30.09F
HARRISON       CLOUDY    70  68  93 W3        30.16F
BENTONVILLE    CLOUDY    73  66  78 CALM      30.15F
ROGERS         CLOUDY    71  70  96 CALM      30.16S
SILOAM SPGS    PTCLDY    73  64  73 CALM      30.13S
HIGHFILL       CLOUDY    72  71  97 N5        30.14F
$$

ARZ004-005-016-300800-
NORTH CENTRAL ARKANSAS

CITY           SKY/WX    TMP DP  RH WIND       PRES   REMARKS
BATESVILLE     CLEAR     73  73 100 W3        30.09S
FLIPPIN        CLEAR     72  68  88 CALM      30.09F
MTN HOME       CLEAR     73  72  96 CALM      30.12F
$$

ARZ040-041-300800-
WEST CENTRAL ARKANSAS

CITY           SKY/WX    TMP DP  RH WIND       PRES   REMARKS
MENA           CLEAR     72  72 100 CALM      30.11S
MOUNT IDA      CLEAR     74  72  93 CALM      30.07F
$$

ARZ009-017-025-026-028-300800-
NORTHEAST ARKANSAS

CITY           SKY/WX    TMP DP  RH WIND       PRES   REMARKS
JONESBORO      PTCLDY    78  75  90 NE5       30.06F
NEWPORT        CLEAR     75  75 100 NE6       30.07F
WALNUT RIDGE   CLEAR     77  73  88 N5        30.08S
BLYTHEVILLE    CLEAR     75  73  93 NE3       30.07F
$$

ARZ022-023-033-042-044-300800-
CENTRAL ARKANSAS

CITY           SKY/WX    TMP DP  RH WIND       PRES   REMARKS
LITTLE ROCK    CLEAR     80  74  81 N5        30.06S HX  85
N LITTLE ROCK    N/A     78  74  86 N3        30.03F
JACKSONVILLE   CLEAR     78  75  92 CALM      30.06S
SEARCY         CLEAR     78  75  90 N5        30.08S
HOT SPRINGS    CLEAR     77  75  93 CALM      30.07F
RUSSELLVILLE   CLEAR     73  72  96 CALM      30.08F
$$

ARZ036-300800-
EAST ARKANSAS

CITY           SKY/WX    TMP DP  RH WIND       PRES   REMARKS
WEST MEMPHIS   CLEAR     78  74  87 E5        30.03F
$$

ARZ050-053-066-070-073-300800-
SOUTHWEST ARKANSAS

CITY           SKY/WX    TMP DP  RH WIND       PRES   REMARKS
ARKADELPHIA    FAIR      76  74  93 CALM      30.04F
TEXARKANA      CLEAR     76  74  93 NE3       30.04F
EL DORADO      CLEAR     74  72  93 CALM      30.03S
DE QUEEN       CLEAR     73  73 100 CALM      30.03F
$$

ARZ056-057-069-300800-
SOUTHEAST ARKANSAS

CITY           SKY/WX    TMP DP  RH WIND       PRES   REMARKS
PINE BLUFF     CLEAR     76  73  91 CALM      30.03F
STUTTGART      CLEAR     75  72  88 N6        30.04F
MONTICELLO     PTCLDY    79  73  82 CALM      30.02F

$$





USA.gov is the U.S. government's official web portal to all federal, state and local government web resources and services.